{"data":{"norad_id":59158,"intl_designator":"2024-044G","name":"STARLINK-31297","alt_names":[],"object_type":"PAYLOAD","status":"ACTIVE","operator":null,"country":"US","launch_date":"2024-03-04","launch_site_code":"AFETR","launch_vehicle":null,"mission":null,"orbit_class":"UNKNOWN","rcs_meters":null,"size_class":null,"mass_kg":null,"dimensions":null,"purposes":["comms"],"wikipedia_slug":null,"has_3d_model":false,"image_url":null,"decayed_at":null,"tle_current":{"epoch":"2026-05-25T01:24:26.407008Z","epoch_age_seconds":69731,"freshness":"FRESH","line1":"1 59158U 24044G   26145.05863897  .00001410  00000+0  60731-4 0  9992","line2":"2 59158  43.0047  35.8733 0001060 268.0620  92.0110 15.27592795125270","mean_motion":15.27592795,"eccentricity":0.000106,"inclination_deg":43.0047,"raan_deg":35.8733,"arg_perigee_deg":268.062,"mean_anomaly_deg":92.011,"bstar":6.0731e-5,"rev_number":12527,"period_min":94.2659591426,"perigee_km":482.28350180905,"apogee_km":483.73806513914,"semimajor_km":6861.1477834741,"source":"CELESTRAK","updated_at":"2026-05-25T13:38:18.833601Z"}}}